Weather in Vostroe

Russia / Vologda Oblast     60°32′16″N   44°55′43″E
temp.,
°C
wind,
m/s
gust,
m/s
humid.,
%
clouds,
%
prec.,
mm/h
press.,
hPa
HPBL,
m
25 may, wed
wed2500:000n2298100 0.0 100931
03:00+1nne1299100 2.6 1009269
06:00+2n2598100 0.1 1009261
09:00+4nnw3590100 0.1 1009575
12:00+5nw3686100 0.0 1009693
15:00+6nw3594100 0.6 10081022
18:00+4nw3599100 0.5 1008596
21:00+3nw2598100 1.2 1008657
26 may, thu
thu2600:00+3w13100100 0.2 1007175
03:00+3sw119499 0.2 100649
06:00+4ssw1195100 0.1 1005197
09:00+4ssw2294100 0.3 1004484
12:00+6sw2284100 0.3 1005741
15:00+7sw337898 0.6 1005942
18:00+6sw3590100 0.2 1005633
21:00+4ssw2698100 0.3 1005327
27 may, fri
fri2700:00+4ssw2698100 0.0 1004304
03:00+4s2697100 0.0 1003245
06:00+5s3788100 0.0 1003328
09:00+9sse357253 0.0 1002602
12:00+14sse344738 0.0 10011770
15:00+15sse555181 0.0 10001527
18:00+13se356899 0.0 1001758
21:00+8se289797 0.1 1002214
28 may, sat
sat2800:00+6sse2498100 0.0 1002104
03:00+6sse2399100 0.0 100288
06:00+9sse358938 0.0 1001317
09:00+12sse4671100 0.0 999806
12:00+12se51085100 0.6 997839
15:00+9ese61396100 7.9 9931095
18:00+8s61394100 2.8 9931219
21:00+7ssw81594100 4.0 9951283
29 may, sun
sun2900:00+7sw81594100 2.5 9971295
03:00+7sw71494100 5.1 10001368
06:00+8sw61395100 3.7 10021263
09:00+11sw6138298 3.8 10041293
12:00+15sw6105395 0.2 10052064
15:00+14sw5960100 0.8 10061725
18:00+12sw498081 1.1 10081043
21:00+8sw4119228 1.3 1010665